Regional Weather Roundup
Issued by NWS

Home | Current Version | Previous Version | Text Only | Print | Product List | Glossary Off
Versions: 1 2 3 4 5 6 7 8 9 10 11 12 13 14 15 16 17 18 19 20 21 22 23 24 25 26 27 28 29 30 31 32 33 34 35 36 37 38 39 40 41 42 43 44 45 46 47 48 49 50

000
ASUS43 KMPX 102310
RWRMN
WEATHER ROUNDUP FOR MINNESOTA
NATIONAL WEATHER SERVICE TWIN CITIES/CHANHASSEN MN
500 PM CST SAT DEC 10 2016


NOTE: "FAIR" INDICATES FEW OR NO CLOUDS BELOW 12,000 FEET WITH NO
SIGNIFICANT WEATHER AND/OR OBSTRUCTIONS TO VISIBILITY. N/A MEANS
CURRENT SKY AND/OR WEATHER CONDITIONS ARE NOT AVAILABLE.

MNZ060>063-068>070-110000-
   Twin Cities Metro

CITY           SKY/WX    TMP DP  RH WIND       PRES   REMARKS
TWIN CITIES    LGT SNOW  11   6  81 E8        30.29F WCI  -1
ST PAUL        LGT SNOW  11   8  88 E5        30.33F FOG     WCI   3
CRYSTAL        LGT SNOW  12   5  73 E6        30.28F WCI   3
BLAINE         LGT SNOW  12   9  85 E7        30.30F WCI   2
LAKEVILLE      LGT SNOW   9   7  92 E9        30.28F WCI  -5
EDEN PRAIRIE   LGT SNOW  11   6  81 E7        30.28F WCI   0
SOUTH ST PAUL  LGT SNOW  12   8  83 CALM      30.31F
LAKE ELMO      LGT SNOW  12   9  85 SE5       30.32F WCI   4
$$
MNZ001>005-007-008-013>017-022>024-027-028-110000-
   Northwest Minnesota

CITY           SKY/WX    TMP DP  RH WIND       PRES   REMARKS
BEMIDJI        CLOUDY    -2  -9  74 E5        30.24F WCI -12
HALLOCK        CLOUDY    -6  -9  84 CALM      30.31F
ROSEAU         CLOUDY    -8 -11  84 CALM      30.30F
WARROAD        CLOUDY    -6  -9  84 CALM      30.30F
THIEF RVR FALL CLOUDY    -7 -10  87 NE5       30.28F WCI -18
CROOKSTON      CLOUDY    -2  -8  78 E5        30.30F WCI -12
FOSSTON        CLOUDY    -8 -11  84 NE3       30.24F
DETROIT LAKES  CLOUDY     1  -4  78 E6        30.23F WCI -10
MOORHEAD       CLOUDY     0  -8  71 E6        30.26F WCI -12
PARK RAPIDS    CLOUDY     2  -7  66 CALM      30.22F
$$
MNZ006-009>011-018-025>026-110000-
   North Central Minnesota

CITY           SKY/WX    TMP DP  RH WIND       PRES   REMARKS
BAUDETTE       CLEAR      0  -6  76 CALM      30.28F
FLAG ISLAND    CLEAR      0  -6  78 CALM      30.29F
INTL FALLS     CLEAR     -7 -11  83 CALM      30.29F
WASKISH        CLOUDY     0  -4  85 CALM      30.28F
BIG FORK       CLOUDY    -4  -9  77 CALM      30.27F
LONGVILLE      CLOUDY     1  -4  78 CALM      30.25F
GRAND RAPIDS   CLOUDY     0  -5  79 CALM      30.28F
CRANE LAKE     CLOUDY     0  -4  85 CALM      30.34S
ORR            CLEAR     -6  -9  84 CALM      30.26F
COOK           PTCLDY    -2  -8  78 CALM      30.29F
$$
MNZ012-019>021-037-110000-
   Northeast Minnesota

CITY           SKY/WX    TMP DP  RH WIND       PRES   REMARKS
DULUTH         PTCLDY     3  -4  72 N3        30.27F
ELY            CLEAR     -2  -6  84 CALM      30.28F
HIBBING        CLOUDY    -4  -8  83 CALM      30.27F
EVELETH        CLEAR      0  -6  78 CALM      30.29F
DULUTH HARBOR  CLEAR     10   0  61 CALM      30.36F
TWO HARBORS    CLEAR      7  -2  66 CALM      30.29F
SILVER BAY     CLEAR      3  -2  78 CALM      30.30S
GRAND MARAIS     N/A      7  -2  66 NW7       30.36R WCI  -5
G MARAIS ARPRT CLEAR     -4  -9  77 CALM      30.23F
$$
MNZ029>031-032-039>041-046>048-054>057-064-110000-
   West Central Minnesota

CITY           SKY/WX    TMP DP  RH WIND       PRES   REMARKS
FERGUS FALLS   CLOUDY     3  -2  78 E7        30.28F WCI  -9
WHEATON        LGT SNOW   7   1  78 E10       30.23F WCI  -8
MORRIS         LGT SNOW   7   3  85 E13       30.19F WCI  -9
ALEXANDRIA     CLOUDY     5   0  79 E10       30.20F WCI -10
ELBOW LAKE     FLURRIES   4  -1  79 E10       30.21F WCI -11
WADENA         CLOUDY     1  -6  71 E5        30.22F WCI  -8
GLENWOOD       LGT SNOW   7   3  85 E12       30.20F WCI  -9
APPLETON       LGT SNOW   9   3  78 E12       30.20F WCI  -6
BENSON         LGT SNOW   9   3  78 SE8       30.21F WCI  -4
ORTONVILLE     LGT SNOW   5   0  78 E7        30.19F WCI  -7
MADISON        LGT SNOW  10   7  85 E8        30.20F WCI  -1
WILLMAR        LGT SNOW  10   7  85 E12       30.21F WCI  -4
$$
MNZ033>034-036-042>043-049>051-058-059-110000-
   Central Minnesota

CITY           SKY/WX    TMP DP  RH WIND       PRES   REMARKS
ST CLOUD       LGT SNOW   8   4  83 E7        30.26F FOG     WCI  -3
SAUK CENTRE    FLURRIES   7   1  78 E7        30.22F WCI  -5
PAYNESVILLE    LGT SNOW   9   5  84 E8        30.23F WCI  -4
AITKIN         MOCLDY     7  -2  66 NE5       30.25F WCI  -2
PINE RIVER     PTCLDY     3  -2  78 CALM      30.27F
BRAINERD       PTCLDY     6  -4  63 SE3       30.25F
LONG PRAIRIE   LGT SNOW   5   1  85 NE8       30.22F WCI  -8
LITTLE FALLS   CLOUDY     9  -2  61 E3        30.26F
LITCHFIELD     LGT SNOW  10   7  85 E10       30.24F WCI  -3
BUFFALO        LGT SNOW  11   6  82 E6        30.28F WCI   1
MAPLE LAKE     LGT SNOW  11   8  86 E7        30.27F WCI   1
HUTCHINSON     LGT SNOW  11   8  86 E10       30.24F WCI  -3
$$
MNZ037-044-045-052-053-110000-
   East Central Minnesota

CITY           SKY/WX    TMP DP  RH WIND       PRES   REMARKS
PRINCETON      CLOUDY    10   1  67 E3        30.27F
MORA           CLOUDY    10   1  67 CALM      30.30F
CAMBRIDGE      CLOUDY    12   1  62 CALM      30.28F
RUSH CITY      CLOUDY    10   3  72 CALM      30.30F
MOOSE LAKE     CLOUDY     9   0  66 CALM      30.27F
HINCKLEY       CLOUDY    12   3  67 CALM      30.29F
CLOQUET        PTCLDY     3  -6  66 CALM      30.27F
MCGREGOR       CLOUDY     5   0  78 CALM      30.27F
$$
MNZ071>073-080-081-089-090-097-098-110000-
   Southwest Minnesota

CITY           SKY/WX    TMP DP  RH WIND       PRES   REMARKS
MONTEVIDEO     LGT SNOW   9   5  85 SE13      30.21F WCI  -7
GRANITE FALLS  LGT SNOW  11   7  85 E12G17    30.20F WCI  -3
CANBY          LGT SNOW   9   6  88 SE8       30.18F VSB 1   WCI  -4
MARSHALL       LGT SNOW   9   5  84 E14       30.16F FOG     WCI  -7
REDWOOD FALLS  LGT SNOW  11   5  77 E13       30.20F WCI  -4
OLIVIA         LGT SNOW  12   9  85 E13       30.21F WCI  -3
PIPESTONE      LGT SNOW  10   7  85 SE15      30.06F WCI  -6
WINDOM         LGT SNOW  10   7  85 MISG      30.14F
WORTHINGTON    LGT SNOW  11   9  92 E17       30.09F FOG     WCI  -6
JACKSON        LGT SNOW  10   9  92 E14       30.14F WCI  -5
TRACY          LGT SNOW  10   8  88 E15       30.15F WCI  -6
SLAYTON        LGT SNOW   9   7  90 E13       30.12F WCI  -7
$$
MNZ065>067-074>077-082>085-091>093-110000-
   South Central Minnesota

CITY           SKY/WX    TMP DP  RH WIND       PRES   REMARKS
MANKATO        LGT SNOW  11   8  88 E9        30.24F FOG     WCI  -2
NEW ULM        FLURRIES  10   7  85 E10       30.22F WCI  -3
ST JAMES       CLOUDY    10   9  92 E12       30.21F WCI  -4
FAIRMONT       LGT SNOW  13  10  88 E14       30.18F FOG     WCI  -2
GLENCOE        LGT SNOW  11   9  90 E8        30.25F WCI   0
OWATONNA       LGT SNOW  10   7  85 E8        30.24F WCI  -1
WASECA         LGT SNOW  12   9  85 E13       30.24F WCI  -3
ALBERT LEA     LGT SNOW  16  12  86 E9        30.22F WCI   4
$$
MNZ078>079-086>088-094>096-110000-
   Southeast Minnesota

CITY           SKY/WX    TMP DP  RH WIND       PRES   REMARKS
ROCHESTER      LGT SNOW  11   8  88 E9        30.26F FOG     WCI  -2
RED WING       LGT SNOW  12   7  79 SE3       30.33F
STANTON        LGT SNOW  13   8  82 E5        30.29F WCI   5
DODGE CENTER   LGT SNOW  10   7  85 E12       30.24F WCI  -4
WINONA         LGT SNOW  14  12  92 CALM      30.35F
AUSTIN         LGT SNOW  12   9  85 E12       30.24F WCI  -2
PRESTON        LGT SNOW  11   8  87 E5        30.28F WCI   2
$$
ABBREVIATIONS USED IN REMARKS
   TC - TEMPERATURES IN CELSIUS
  WCI - WIND CHILL INDEX
   HX - HEAT INDEX
  VSB - VISIBILITY
$$



USA.gov is the U.S. government's official web portal to all federal, state and local government web resources and services.